Year,Month,Day,Hour,Minute,Value (Times are PST for temperature in C)
2010,01,22,00,00,2.60
2010,01,22,00,01,2.60
2010,01,22,00,02,2.60
2010,01,22,00,03,2.60
2010,01,22,00,04,2.60
2010,01,22,00,05,2.60
2010,01,22,00,06,2.60
2010,01,22,00,07,2.60
2010,01,22,00,08,2.60
2010,01,22,00,09,2.60
2010,01,22,00,10,2.60
2010,01,22,00,11,2.60
2010,01,22,00,12,2.50
2010,01,22,00,13,2.50
2010,01,22,00,14,2.50
2010,01,22,00,15,2.50
2010,01,22,00,16,2.50
2010,01,22,00,17,2.50
2010,01,22,00,18,2.40
2010,01,22,00,19,2.40
2010,01,22,00,20,2.40
2010,01,22,00,21,2.40
2010,01,22,00,22,2.40
2010,01,22,00,23,2.40
2010,01,22,00,24,2.40
2010,01,22,00,25,2.40
2010,01,22,00,26,2.50
2010,01,22,00,27,2.50
2010,01,22,00,28,2.50
2010,01,22,00,29,2.50
2010,01,22,00,30,2.50
2010,01,22,00,31,2.60
2010,01,22,00,32,2.60
2010,01,22,00,33,2.60
2010,01,22,00,34,2.60
2010,01,22,00,35,2.60
2010,01,22,00,36,2.60
2010,01,22,00,37,2.60
2010,01,22,00,38,2.60
2010,01,22,00,39,2.60
2010,01,22,00,40,2.60
2010,01,22,00,41,2.60
2010,01,22,00,42,2.60
2010,01,22,00,43,2.60
2010,01,22,00,44,2.50
2010,01,22,00,45,2.50
2010,01,22,00,46,2.50
2010,01,22,00,47,2.40
2010,01,22,00,48,2.40
2010,01,22,00,49,2.40
2010,01,22,00,50,2.30
2010,01,22,00,51,2.30
2010,01,22,00,52,2.30
2010,01,22,00,53,2.30
2010,01,22,00,54,2.30
2010,01,22,00,55,2.20
2010,01,22,00,56,2.20
2010,01,22,00,57,2.20
2010,01,22,00,58,2.20
2010,01,22,00,59,2.20
2010,01,22,01,00,2.20
2010,01,22,01,01,2.20
2010,01,22,01,02,2.20
2010,01,22,01,03,2.20
2010,01,22,01,04,2.20
2010,01,22,01,05,2.20
2010,01,22,01,06,2.30
2010,01,22,01,07,2.30
2010,01,22,01,08,2.30
2010,01,22,01,09,2.30
2010,01,22,01,10,2.30
2010,01,22,01,11,2.30
2010,01,22,01,12,2.30
2010,01,22,01,13,2.30
2010,01,22,01,14,2.20
2010,01,22,01,15,2.20
2010,01,22,01,16,2.20
2010,01,22,01,17,2.20
2010,01,22,01,18,2.20
2010,01,22,01,19,2.20
2010,01,22,01,20,2.20
2010,01,22,01,21,2.20
2010,01,22,01,22,2.20
2010,01,22,01,23,2.20
2010,01,22,01,24,2.20
2010,01,22,01,25,2.20
2010,01,22,01,26,2.20
2010,01,22,01,27,2.20
2010,01,22,01,28,2.20
2010,01,22,01,29,2.20
2010,01,22,01,30,2.20
2010,01,22,01,31,2.20
2010,01,22,01,32,2.20
2010,01,22,01,33,2.20
2010,01,22,01,34,2.30
2010,01,22,01,35,2.30
2010,01,22,01,36,2.30
2010,01,22,01,37,2.30
2010,01,22,01,38,2.20
2010,01,22,01,39,2.20
2010,01,22,01,40,2.20
2010,01,22,01,41,2.20
2010,01,22,01,42,2.20
2010,01,22,01,43,2.20
2010,01,22,01,44,2.10
2010,01,22,01,45,2.10
2010,01,22,01,46,2.10
2010,01,22,01,47,2.10
2010,01,22,01,48,2.10
2010,01,22,01,49,2.10
2010,01,22,01,50,2.10
2010,01,22,01,51,2.10
2010,01,22,01,52,2.10
2010,01,22,01,53,2.10
2010,01,22,01,54,2.10
2010,01,22,01,55,2.10
2010,01,22,01,56,2.10
2010,01,22,01,57,2.00
2010,01,22,01,58,2.00
2010,01,22,01,59,2.00
2010,01,22,02,00,2.00
2010,01,22,02,01,2.00
2010,01,22,02,02,1.90
2010,01,22,02,03,1.90
2010,01,22,02,04,1.90
2010,01,22,02,05,1.90
2010,01,22,02,06,1.90
2010,01,22,02,07,1.90
2010,01,22,02,08,1.90
2010,01,22,02,09,1.90
2010,01,22,02,10,1.80
2010,01,22,02,11,1.90
2010,01,22,02,12,1.90
2010,01,22,02,13,1.90
2010,01,22,02,14,1.90
2010,01,22,02,15,1.90
2010,01,22,02,16,1.90
2010,01,22,02,17,1.90
2010,01,22,02,18,1.90
2010,01,22,02,19,1.90
2010,01,22,02,20,1.90
2010,01,22,02,21,1.90
2010,01,22,02,22,1.90
2010,01,22,02,23,1.90
2010,01,22,02,24,1.90
2010,01,22,02,25,1.90
2010,01,22,02,26,1.90
2010,01,22,02,27,1.90
2010,01,22,02,28,1.90
2010,01,22,02,29,1.90
2010,01,22,02,30,1.90
2010,01,22,02,31,1.80
2010,01,22,02,32,1.80
2010,01,22,02,33,1.80
2010,01,22,02,34,1.80
2010,01,22,02,35,1.80
2010,01,22,02,36,1.80
2010,01,22,02,37,1.90
2010,01,22,02,38,1.90
2010,01,22,02,39,1.90
2010,01,22,02,40,1.90
2010,01,22,02,41,1.90
2010,01,22,02,42,1.90
2010,01,22,02,43,1.90
2010,01,22,02,44,1.90
2010,01,22,02,45,1.90
2010,01,22,02,46,1.90
2010,01,22,02,47,1.90
2010,01,22,02,48,1.90
2010,01,22,02,49,1.90
2010,01,22,02,50,1.90
2010,01,22,02,51,1.90
2010,01,22,02,52,1.90
2010,01,22,02,53,1.90
2010,01,22,02,54,1.90
2010,01,22,02,55,1.90
2010,01,22,02,56,1.90
2010,01,22,02,57,1.90
2010,01,22,02,58,1.90
2010,01,22,02,59,2.00
2010,01,22,03,00,2.00
2010,01,22,03,01,2.00
2010,01,22,03,02,2.00
2010,01,22,03,03,2.00
2010,01,22,03,04,2.00
2010,01,22,03,05,2.00
2010,01,22,03,06,2.00
2010,01,22,03,07,2.00
2010,01,22,03,08,2.00
2010,01,22,03,09,2.00
2010,01,22,03,10,2.00
2010,01,22,03,11,2.10
2010,01,22,03,12,2.10
2010,01,22,03,13,2.10
2010,01,22,03,14,2.10
2010,01,22,03,15,2.10
2010,01,22,03,16,2.10
2010,01,22,03,17,2.10
2010,01,22,03,18,2.10
2010,01,22,03,19,2.10
2010,01,22,03,20,2.10
2010,01,22,03,21,2.00
2010,01,22,03,22,2.00
2010,01,22,03,23,2.00
2010,01,22,03,24,2.00
2010,01,22,03,25,2.00
2010,01,22,03,26,2.00
2010,01,22,03,27,2.00
2010,01,22,03,28,2.00
2010,01,22,03,29,2.00
2010,01,22,03,30,2.00
2010,01,22,03,31,2.00
2010,01,22,03,32,2.00
2010,01,22,03,33,1.90
2010,01,22,03,34,1.90
2010,01,22,03,35,1.90
2010,01,22,03,36,1.90
2010,01,22,03,37,1.90
2010,01,22,03,38,1.90
2010,01,22,03,39,1.90
2010,01,22,03,40,2.00
2010,01,22,03,41,2.00
2010,01,22,03,42,2.00
2010,01,22,03,43,2.00
2010,01,22,03,44,2.00
2010,01,22,03,45,2.00
2010,01,22,03,46,1.90
2010,01,22,03,47,1.90
2010,01,22,03,48,1.90
2010,01,22,03,49,1.90
2010,01,22,03,50,1.90
2010,01,22,03,51,1.80
2010,01,22,03,52,1.80
2010,01,22,03,53,1.80
2010,01,22,03,54,1.80
2010,01,22,03,55,1.80
2010,01,22,03,56,1.80
2010,01,22,03,57,1.80
2010,01,22,03,58,1.80
2010,01,22,03,59,1.80
2010,01,22,04,00,1.80
2010,01,22,04,01,1.80
2010,01,22,04,02,1.80
2010,01,22,04,03,1.80
2010,01,22,04,05,1.80
2010,01,22,04,06,1.80
2010,01,22,04,07,1.80
2010,01,22,04,08,1.80
2010,01,22,04,09,1.80
2010,01,22,04,10,1.80
2010,01,22,04,11,1.80
2010,01,22,04,12,1.80
2010,01,22,04,13,1.80
2010,01,22,04,14,1.80
2010,01,22,04,15,1.80
2010,01,22,04,16,1.90
2010,01,22,04,17,1.90
2010,01,22,04,18,1.90
2010,01,22,04,19,1.90
2010,01,22,04,20,2.00
2010,01,22,04,21,2.00
2010,01,22,04,22,2.00
2010,01,22,04,23,2.00
2010,01,22,04,24,2.10
2010,01,22,04,25,2.10
2010,01,22,04,26,2.10
2010,01,22,04,27,2.10
2010,01,22,04,28,2.10
2010,01,22,04,29,2.10
2010,01,22,04,30,2.10
2010,01,22,04,31,2.10
2010,01,22,04,32,2.10
2010,01,22,04,33,2.10
2010,01,22,04,34,2.10
2010,01,22,04,35,2.10
2010,01,22,04,36,2.00
2010,01,22,04,37,2.00
2010,01,22,04,38,2.00
2010,01,22,04,39,2.00
2010,01,22,04,40,2.00
2010,01,22,04,41,2.00
2010,01,22,04,42,1.90
2010,01,22,04,43,1.90
2010,01,22,04,44,1.90
2010,01,22,04,45,1.90
2010,01,22,04,46,1.90
2010,01,22,04,47,1.90
2010,01,22,04,48,2.00
2010,01,22,04,49,2.00
2010,01,22,04,50,2.00
2010,01,22,04,51,2.00
2010,01,22,04,52,2.00
2010,01,22,04,53,2.00
2010,01,22,04,54,2.00
2010,01,22,04,55,2.00
2010,01,22,04,56,1.90
2010,01,22,04,57,1.90
2010,01,22,04,58,1.90
2010,01,22,04,59,1.90
2010,01,22,05,00,1.90
2010,01,22,05,01,1.90
2010,01,22,05,02,1.90
2010,01,22,05,03,1.90
2010,01,22,05,04,1.90
2010,01,22,05,05,1.90
2010,01,22,05,06,2.00
2010,01,22,05,07,2.00
2010,01,22,05,08,2.00
2010,01,22,05,09,2.10
2010,01,22,05,10,2.10
2010,01,22,05,11,2.10
2010,01,22,05,12,2.10
2010,01,22,05,13,2.10
2010,01,22,05,14,2.10
2010,01,22,05,15,2.10
2010,01,22,05,16,2.10
2010,01,22,05,17,2.10
2010,01,22,05,18,2.10
2010,01,22,05,19,2.00
2010,01,22,05,20,2.00
2010,01,22,05,21,2.00
2010,01,22,05,22,2.00
2010,01,22,05,23,2.00
2010,01,22,05,24,2.00
2010,01,22,05,25,2.00
2010,01,22,05,26,1.90
2010,01,22,05,27,1.90
2010,01,22,05,28,1.90
2010,01,22,05,29,1.90
2010,01,22,05,30,1.90
2010,01,22,05,31,1.90
2010,01,22,05,32,1.90
2010,01,22,05,33,1.90
2010,01,22,05,34,2.00
2010,01,22,05,35,2.00
2010,01,22,05,36,2.00
2010,01,22,05,37,2.00
2010,01,22,05,38,2.00
2010,01,22,05,39,2.00
2010,01,22,05,40,2.00
2010,01,22,05,41,2.00
2010,01,22,05,42,2.00
2010,01,22,05,43,2.00
2010,01,22,05,44,2.00
2010,01,22,05,45,1.90
2010,01,22,05,46,1.90
2010,01,22,05,47,1.90
2010,01,22,05,48,1.90
2010,01,22,05,49,1.90
2010,01,22,05,50,1.90
2010,01,22,05,51,1.90
2010,01,22,05,52,1.90
2010,01,22,05,53,1.90
2010,01,22,05,54,1.90
2010,01,22,05,55,1.90
2010,01,22,05,56,1.90
2010,01,22,05,57,1.90
2010,01,22,05,58,1.90
2010,01,22,05,59,1.90
2010,01,22,06,00,1.90
2010,01,22,06,01,2.00
2010,01,22,06,02,2.00
2010,01,22,06,03,2.00
2010,01,22,06,04,2.00
2010,01,22,06,05,2.00
2010,01,22,06,06,2.00
2010,01,22,06,07,2.00
2010,01,22,06,08,2.00
2010,01,22,06,09,2.00
2010,01,22,06,10,2.00
2010,01,22,06,11,2.00
2010,01,22,06,12,2.00
2010,01,22,06,13,2.00
2010,01,22,06,14,2.00
2010,01,22,06,15,2.00
2010,01,22,06,16,1.90
2010,01,22,06,17,1.90
2010,01,22,06,18,1.90
2010,01,22,06,19,1.90
2010,01,22,06,20,1.90
2010,01,22,06,21,1.90
2010,01,22,06,22,1.90
2010,01,22,06,23,1.90
2010,01,22,06,24,1.90
2010,01,22,06,25,1.90
2010,01,22,06,26,1.90
2010,01,22,06,27,1.90
2010,01,22,06,28,1.90
2010,01,22,06,29,1.90
2010,01,22,06,30,1.90
2010,01,22,06,31,1.90
2010,01,22,06,32,1.90
2010,01,22,06,33,1.90
2010,01,22,06,34,1.90
2010,01,22,06,35,1.90
2010,01,22,06,36,1.90
2010,01,22,06,37,1.90
2010,01,22,06,38,1.90
2010,01,22,06,39,1.90
2010,01,22,06,40,1.90
2010,01,22,06,41,1.90
2010,01,22,06,42,1.90
2010,01,22,06,43,1.90
2010,01,22,06,44,1.90
2010,01,22,06,45,1.90
2010,01,22,06,46,1.90
2010,01,22,06,47,1.90
2010,01,22,06,48,1.90
2010,01,22,06,49,1.80
2010,01,22,06,50,1.80
2010,01,22,06,51,1.80
2010,01,22,06,52,1.80
2010,01,22,06,53,1.80
2010,01,22,06,54,1.80
2010,01,22,06,55,1.80
2010,01,22,06,56,1.80
2010,01,22,06,57,1.80
2010,01,22,06,58,1.70
2010,01,22,06,59,1.70
2010,01,22,07,00,1.70
2010,01,22,07,01,1.70
2010,01,22,07,02,1.70
2010,01,22,07,03,1.70
2010,01,22,07,04,1.70
2010,01,22,07,05,1.70
2010,01,22,07,06,1.70
2010,01,22,07,07,1.70
2010,01,22,07,08,1.70
2010,01,22,07,09,1.80
2010,01,22,07,10,1.80
2010,01,22,07,11,1.80
2010,01,22,07,12,1.80
2010,01,22,07,13,1.80
2010,01,22,07,14,1.90
2010,01,22,07,15,1.90
2010,01,22,07,16,1.90
2010,01,22,07,17,1.90
2010,01,22,07,18,1.90
2010,01,22,07,19,1.90
2010,01,22,07,20,1.90
2010,01,22,07,21,1.90
2010,01,22,07,22,1.90
2010,01,22,07,23,1.90
2010,01,22,07,24,1.90
2010,01,22,07,25,1.90
2010,01,22,07,26,1.90
2010,01,22,07,27,1.90
2010,01,22,07,28,1.90
2010,01,22,07,29,1.90
2010,01,22,07,30,1.90
2010,01,22,07,31,1.90
2010,01,22,07,32,1.80
2010,01,22,07,33,1.80
2010,01,22,07,34,1.80
2010,01,22,07,35,1.80
2010,01,22,07,36,1.80
2010,01,22,07,37,1.80
2010,01,22,07,38,1.80
2010,01,22,07,39,1.80
2010,01,22,07,40,1.70
2010,01,22,07,41,1.70
2010,01,22,07,42,1.70
2010,01,22,07,43,1.70
2010,01,22,07,44,1.60
2010,01,22,07,45,1.60
2010,01,22,07,46,1.60
2010,01,22,07,47,1.60
2010,01,22,07,48,1.60
2010,01,22,07,49,1.60
2010,01,22,07,50,1.60
2010,01,22,07,51,1.60
2010,01,22,07,52,1.60
2010,01,22,07,53,1.60
2010,01,22,07,54,1.60
2010,01,22,07,55,1.60
2010,01,22,07,56,1.60
2010,01,22,07,57,1.60
2010,01,22,07,58,1.60
2010,01,22,07,59,1.60
2010,01,22,08,00,1.50
2010,01,22,08,01,1.50
2010,01,22,08,02,1.50
2010,01,22,08,03,1.50
2010,01,22,08,04,1.50
2010,01,22,08,05,1.50
2010,01,22,08,06,1.50
2010,01,22,08,07,1.50
2010,01,22,08,08,1.50
2010,01,22,08,09,1.50
2010,01,22,08,10,1.50
2010,01,22,08,11,1.60
2010,01,22,08,12,1.60
2010,01,22,08,13,1.60
2010,01,22,08,14,1.60
2010,01,22,08,15,1.60
2010,01,22,08,16,1.60
2010,01,22,08,17,1.60
2010,01,22,08,18,1.70
2010,01,22,08,19,1.70
2010,01,22,08,20,1.70
2010,01,22,08,21,1.70
2010,01,22,08,22,1.70
2010,01,22,08,23,1.70
2010,01,22,08,24,1.70
2010,01,22,08,25,1.60
2010,01,22,08,26,1.60
2010,01,22,08,27,1.60
2010,01,22,08,28,1.60
2010,01,22,08,29,1.60
2010,01,22,08,30,1.60
2010,01,22,08,31,1.70
2010,01,22,08,32,1.70
2010,01,22,08,33,1.70
2010,01,22,08,34,1.70
2010,01,22,08,35,1.70
2010,01,22,08,36,1.70
2010,01,22,08,37,1.70
2010,01,22,08,38,1.70
2010,01,22,08,39,1.70
2010,01,22,08,40,1.70
2010,01,22,08,41,1.70
2010,01,22,08,42,1.70
2010,01,22,08,43,1.70
2010,01,22,08,44,1.70
2010,01,22,08,45,1.70
2010,01,22,08,46,1.70
2010,01,22,08,47,1.70
2010,01,22,08,48,1.70
2010,01,22,08,49,1.70
2010,01,22,08,50,1.70
2010,01,22,08,51,1.80
2010,01,22,08,52,1.80
2010,01,22,08,53,1.80
2010,01,22,08,54,1.80
2010,01,22,08,55,1.80
2010,01,22,08,56,1.80
2010,01,22,08,57,1.80
2010,01,22,08,58,1.80
2010,01,22,08,59,1.90
2010,01,22,09,00,1.90
2010,01,22,09,01,1.90
2010,01,22,09,02,1.90
2010,01,22,09,03,1.90
2010,01,22,09,04,1.90
2010,01,22,09,05,1.90
2010,01,22,09,06,2.00
2010,01,22,09,07,2.00
2010,01,22,09,08,2.00
2010,01,22,09,09,2.00
2010,01,22,09,10,2.00
2010,01,22,09,11,2.00
2010,01,22,09,12,2.10
2010,01,22,09,13,2.10
2010,01,22,09,14,2.10
2010,01,22,09,15,2.10
2010,01,22,09,16,2.10
2010,01,22,09,17,2.20
2010,01,22,09,18,2.20
2010,01,22,09,19,2.20
2010,01,22,09,20,2.20
2010,01,22,09,21,2.20
2010,01,22,09,22,2.30
2010,01,22,09,23,2.30
2010,01,22,09,24,2.30
2010,01,22,09,25,2.30
2010,01,22,09,26,2.40
2010,01,22,09,27,2.40
2010,01,22,09,28,2.40
2010,01,22,09,29,2.50
2010,01,22,09,30,2.50
2010,01,22,09,31,2.60
2010,01,22,09,32,2.60
2010,01,22,09,33,2.60
2010,01,22,09,34,2.70
2010,01,22,09,35,2.70
2010,01,22,09,36,2.70
2010,01,22,09,37,2.70
2010,01,22,09,38,2.80
2010,01,22,09,39,2.80
2010,01,22,09,40,2.80
2010,01,22,09,41,2.90
2010,01,22,09,42,2.90
2010,01,22,09,43,3.00
2010,01,22,09,44,3.00
2010,01,22,09,45,3.10
2010,01,22,09,46,3.10
2010,01,22,09,47,3.10
2010,01,22,09,48,3.20
2010,01,22,09,49,3.20
2010,01,22,09,50,3.20
2010,01,22,09,51,3.30
2010,01,22,09,52,3.30
2010,01,22,09,53,3.30
2010,01,22,09,54,3.40
2010,01,22,09,55,3.40
2010,01,22,09,56,3.50
2010,01,22,09,57,3.60
2010,01,22,09,58,3.60
2010,01,22,09,59,3.60
2010,01,22,10,00,3.70
2010,01,22,10,01,3.70
2010,01,22,10,02,3.70
2010,01,22,10,03,3.70
2010,01,22,10,04,3.80
2010,01,22,10,05,3.80
2010,01,22,10,06,3.80
2010,01,22,10,07,3.80
2010,01,22,10,08,3.80
2010,01,22,10,09,3.80
2010,01,22,10,10,3.80
2010,01,22,10,11,3.90
2010,01,22,10,12,3.90
2010,01,22,10,13,3.90
2010,01,22,10,14,4.00
2010,01,22,10,15,4.00
2010,01,22,10,16,4.10
2010,01,22,10,17,4.10
2010,01,22,10,18,4.10
2010,01,22,10,19,4.10
2010,01,22,10,20,4.20
2010,01,22,10,21,4.20
2010,01,22,10,22,4.30
2010,01,22,10,23,4.30
2010,01,22,10,24,4.30
2010,01,22,10,25,4.30
2010,01,22,10,26,4.40
2010,01,22,10,27,4.40
2010,01,22,10,28,4.40
2010,01,22,10,29,4.50
2010,01,22,10,30,4.50
2010,01,22,10,31,4.60
2010,01,22,10,32,4.60
2010,01,22,10,33,4.60
2010,01,22,10,34,4.70
2010,01,22,10,35,4.70
2010,01,22,10,36,4.70
2010,01,22,10,37,4.80
2010,01,22,10,38,4.80
2010,01,22,10,39,4.90
2010,01,22,10,40,4.90
2010,01,22,10,41,5.00
2010,01,22,10,42,5.00
2010,01,22,10,43,5.10
2010,01,22,10,44,5.10
2010,01,22,10,45,5.20
2010,01,22,10,46,5.30
2010,01,22,10,47,5.30
2010,01,22,10,48,5.40
2010,01,22,10,49,5.50
2010,01,22,10,50,5.50
2010,01,22,10,51,5.60
2010,01,22,10,52,5.60
2010,01,22,10,53,5.70
2010,01,22,10,54,5.70
2010,01,22,10,55,5.80
2010,01,22,10,56,5.90
2010,01,22,10,57,5.90
2010,01,22,10,58,6.00
2010,01,22,10,59,6.10
2010,01,22,11,00,6.10
2010,01,22,11,01,6.20
2010,01,22,11,02,6.20
2010,01,22,11,03,6.30
2010,01,22,11,04,6.30
2010,01,22,11,05,6.40
2010,01,22,11,06,6.50
2010,01,22,11,07,6.60
2010,01,22,11,08,6.70
2010,01,22,11,09,6.70
2010,01,22,11,10,6.80
2010,01,22,11,11,6.80
2010,01,22,11,12,6.90
2010,01,22,11,13,7.00
2010,01,22,11,14,7.00
2010,01,22,11,15,7.10
2010,01,22,11,16,7.20
2010,01,22,11,17,7.20
2010,01,22,11,18,7.30
2010,01,22,11,19,7.40
2010,01,22,11,20,7.50
2010,01,22,11,21,7.60
2010,01,22,11,22,7.70
2010,01,22,11,23,7.70
2010,01,22,11,24,7.80
2010,01,22,11,25,7.80
2010,01,22,11,26,7.90
2010,01,22,11,27,8.00
2010,01,22,11,28,8.00
2010,01,22,11,29,8.10
2010,01,22,11,30,8.10
2010,01,22,11,31,8.10
2010,01,22,11,32,8.20
2010,01,22,11,33,8.20
2010,01,22,11,34,8.30
2010,01,22,11,35,8.30
2010,01,22,11,36,8.30
2010,01,22,11,37,8.30
2010,01,22,11,38,8.40
2010,01,22,11,39,8.40
2010,01,22,11,40,8.40
2010,01,22,11,41,8.50
2010,01,22,11,42,8.50
2010,01,22,11,43,8.60
2010,01,22,11,44,8.70
2010,01,22,11,45,8.70
2010,01,22,11,46,8.70
2010,01,22,11,47,8.70
2010,01,22,11,48,8.70
2010,01,22,11,49,8.70
2010,01,22,11,50,8.80
2010,01,22,11,51,8.80
2010,01,22,11,52,8.80
2010,01,22,11,53,8.80
2010,01,22,11,54,8.80
2010,01,22,11,55,8.80
2010,01,22,11,56,8.80
2010,01,22,11,57,8.80
2010,01,22,11,58,8.80
2010,01,22,11,59,8.80
2010,01,22,12,00,8.80
2010,01,22,12,01,8.80
2010,01,22,12,02,8.80
2010,01,22,12,03,8.80
2010,01,22,12,04,8.80
2010,01,22,12,05,8.80
2010,01,22,12,06,8.80
2010,01,22,12,07,8.80
2010,01,22,12,08,8.80
2010,01,22,12,09,8.80
2010,01,22,12,10,8.90
2010,01,22,12,11,8.90
2010,01,22,12,12,8.90
2010,01,22,12,13,8.90
2010,01,22,12,14,8.90
2010,01,22,12,15,8.90
2010,01,22,12,16,8.90
2010,01,22,12,17,9.00
2010,01,22,12,18,9.00
2010,01,22,12,19,9.00
2010,01,22,12,20,9.10
2010,01,22,12,21,9.10
2010,01,22,12,22,9.10
2010,01,22,12,23,9.20
2010,01,22,12,24,9.30
2010,01,22,12,25,9.30
2010,01,22,12,26,9.40
2010,01,22,12,27,9.40
2010,01,22,12,28,9.50
2010,01,22,12,29,9.60
2010,01,22,12,30,9.60
2010,01,22,12,31,9.60
2010,01,22,12,32,9.70
2010,01,22,12,33,9.70
2010,01,22,12,34,9.80
2010,01,22,12,35,9.80
2010,01,22,12,36,9.80
2010,01,22,12,37,9.80
2010,01,22,12,38,9.90
2010,01,22,12,39,9.90
2010,01,22,12,40,10.00
2010,01,22,12,41,10.00
2010,01,22,12,42,10.10
2010,01,22,12,43,10.10
2010,01,22,12,44,10.20
2010,01,22,12,45,10.20
2010,01,22,12,46,10.20
2010,01,22,12,47,10.20
2010,01,22,12,48,10.10
2010,01,22,12,49,10.10
2010,01,22,12,50,10.10
2010,01,22,12,51,10.10
2010,01,22,12,52,10.10
2010,01,22,12,53,10.10
2010,01,22,12,54,10.10
2010,01,22,12,55,10.10
2010,01,22,12,56,10.10
2010,01,22,12,57,10.10
2010,01,22,12,58,10.20
2010,01,22,12,59,10.20
2010,01,22,13,00,10.30
2010,01,22,13,01,10.30
2010,01,22,13,02,10.40
2010,01,22,13,03,10.50
2010,01,22,13,04,10.60
2010,01,22,13,05,10.70
2010,01,22,13,06,10.80
2010,01,22,13,07,10.80
2010,01,22,13,08,10.80
2010,01,22,13,09,10.80
2010,01,22,13,10,10.80
2010,01,22,13,11,10.80
2010,01,22,13,12,10.80
2010,01,22,13,13,10.80
2010,01,22,13,14,10.70
2010,01,22,13,15,10.70
2010,01,22,13,16,10.70
2010,01,22,13,17,10.60
2010,01,22,13,18,10.60
2010,01,22,13,19,10.60
2010,01,22,13,20,10.60
2010,01,22,13,21,10.60
2010,01,22,13,22,10.60
2010,01,22,13,23,10.60
2010,01,22,13,24,10.60
2010,01,22,13,25,10.60
2010,01,22,13,26,10.60
2010,01,22,13,27,10.60
2010,01,22,13,28,10.60
2010,01,22,13,29,10.60
2010,01,22,13,30,10.60
2010,01,22,13,31,10.60
2010,01,22,13,32,10.60
2010,01,22,13,33,10.60
2010,01,22,13,34,10.70
2010,01,22,13,35,10.70
2010,01,22,13,36,10.70
2010,01,22,13,37,10.70
2010,01,22,13,38,10.70
2010,01,22,13,39,10.70
2010,01,22,13,40,10.70
2010,01,22,13,41,10.70
2010,01,22,13,42,10.70
2010,01,22,13,43,10.70
2010,01,22,13,44,10.80
2010,01,22,13,45,10.80
2010,01,22,13,46,10.80
2010,01,22,13,47,10.70
2010,01,22,13,48,10.70
2010,01,22,13,49,10.70
2010,01,22,13,50,10.70
2010,01,22,13,51,10.70
2010,01,22,13,52,10.70
2010,01,22,13,53,10.70
2010,01,22,13,54,10.70
2010,01,22,13,55,10.70
2010,01,22,13,56,10.70
2010,01,22,13,57,10.70
2010,01,22,13,58,10.70
2010,01,22,13,59,10.70
2010,01,22,14,00,10.70
2010,01,22,14,01,10.70
2010,01,22,14,02,10.70
2010,01,22,14,03,10.80
2010,01,22,14,04,10.80
2010,01,22,14,05,10.80
2010,01,22,14,06,10.80
2010,01,22,14,07,10.80
2010,01,22,14,08,10.80
2010,01,22,14,09,10.80
2010,01,22,14,10,10.80
2010,01,22,14,11,10.90
2010,01,22,14,12,10.90
2010,01,22,14,13,10.90
2010,01,22,14,14,10.90
2010,01,22,14,15,10.90
2010,01,22,14,16,10.90
2010,01,22,14,17,10.90
2010,01,22,14,18,10.80
2010,01,22,14,19,10.80
2010,01,22,14,20,10.80
2010,01,22,14,21,10.80
2010,01,22,14,22,10.80
2010,01,22,14,23,10.70
2010,01,22,14,24,10.70
2010,01,22,14,25,10.70
2010,01,22,14,26,10.70
2010,01,22,14,27,10.70
2010,01,22,14,28,10.70
2010,01,22,14,29,10.70
2010,01,22,14,30,10.70
2010,01,22,14,31,10.40
2010,01,22,14,32,10.40
2010,01,22,14,33,10.40
2010,01,22,14,34,10.40
2010,01,22,14,35,10.30
2010,01,22,14,36,10.30
2010,01,22,14,37,10.30
2010,01,22,14,38,10.30
2010,01,22,14,39,10.30
2010,01,22,14,40,10.40
2010,01,22,14,41,10.40
2010,01,22,14,42,10.40
2010,01,22,14,43,10.40
2010,01,22,14,44,10.40
2010,01,22,14,45,10.40
2010,01,22,14,46,10.40
2010,01,22,14,47,10.40
2010,01,22,14,48,10.40
2010,01,22,14,49,10.40
2010,01,22,14,50,10.40
2010,01,22,14,51,10.40
2010,01,22,14,52,10.40
2010,01,22,14,53,10.40
2010,01,22,14,54,10.40
2010,01,22,14,55,10.40
2010,01,22,14,56,10.40
2010,01,22,14,57,10.40
2010,01,22,14,58,10.40
2010,01,22,14,59,10.40
2010,01,22,15,00,10.30
2010,01,22,15,01,10.30
2010,01,22,15,02,10.30
2010,01,22,15,03,10.30
2010,01,22,15,04,10.30
2010,01,22,15,05,10.30
2010,01,22,15,06,10.30
2010,01,22,15,07,10.30
2010,01,22,15,08,10.30
2010,01,22,15,09,10.30
2010,01,22,15,10,10.30
2010,01,22,15,11,10.30
2010,01,22,15,12,10.30
2010,01,22,15,13,10.30
2010,01,22,15,14,10.30
2010,01,22,15,15,10.30
2010,01,22,15,16,10.30
2010,01,22,15,17,10.30
2010,01,22,15,18,10.30
2010,01,22,15,19,10.30
2010,01,22,15,20,10.30
2010,01,22,15,21,10.30
2010,01,22,15,22,10.30
2010,01,22,15,23,10.30
2010,01,22,15,24,10.30
2010,01,22,15,25,10.30
2010,01,22,15,26,10.30
2010,01,22,15,27,10.30
2010,01,22,15,28,10.20
2010,01,22,15,29,10.20
2010,01,22,15,30,10.20
2010,01,22,15,31,10.20
2010,01,22,15,32,10.20
2010,01,22,15,33,10.20
2010,01,22,15,34,10.30
2010,01,22,15,35,10.30
2010,01,22,15,36,10.30
2010,01,22,15,37,10.30
2010,01,22,15,38,10.30
2010,01,22,15,39,10.40
2010,01,22,15,40,10.40
2010,01,22,15,41,10.40
2010,01,22,15,42,10.40
2010,01,22,15,43,10.40
2010,01,22,15,44,10.40
2010,01,22,15,45,10.40
2010,01,22,15,46,10.40
2010,01,22,15,47,10.40
2010,01,22,15,48,10.40
2010,01,22,15,49,10.40
2010,01,22,15,50,10.40
2010,01,22,15,51,10.40
2010,01,22,15,52,10.50
2010,01,22,15,53,10.50
2010,01,22,15,54,10.50
2010,01,22,15,55,10.60
2010,01,22,15,56,10.60
2010,01,22,15,57,10.60
2010,01,22,15,58,10.60
2010,01,22,15,59,10.60
2010,01,22,16,00,10.60
2010,01,22,16,01,10.60
2010,01,22,16,02,10.60
2010,01,22,16,03,10.60
2010,01,22,16,04,10.60
2010,01,22,16,05,10.50
2010,01,22,16,06,10.50
2010,01,22,16,07,10.50
2010,01,22,16,08,10.40
2010,01,22,16,09,10.40
2010,01,22,16,10,10.40
2010,01,22,16,11,10.40
2010,01,22,16,12,10.30
2010,01,22,16,13,10.30
2010,01,22,16,14,10.30
2010,01,22,16,15,10.30
2010,01,22,16,16,10.20
2010,01,22,16,17,10.20
2010,01,22,16,18,10.20
2010,01,22,16,19,10.20
2010,01,22,16,20,10.20
2010,01,22,16,21,10.20
2010,01,22,16,22,10.10
2010,01,22,16,23,10.10
2010,01,22,16,24,10.10
2010,01,22,16,25,10.10
2010,01,22,16,26,10.10
2010,01,22,16,27,10.00
2010,01,22,16,28,10.00
2010,01,22,16,29,9.90
2010,01,22,16,30,9.90
2010,01,22,16,31,9.80
2010,01,22,16,32,9.80
2010,01,22,16,33,9.70
2010,01,22,16,34,9.70
2010,01,22,16,35,9.60
2010,01,22,16,36,9.60
2010,01,22,16,37,9.50
2010,01,22,16,38,9.50
2010,01,22,16,39,9.40
2010,01,22,16,40,9.30
2010,01,22,16,41,9.30
2010,01,22,16,42,9.30
2010,01,22,16,43,9.20
2010,01,22,16,44,9.20
2010,01,22,16,45,9.10
2010,01,22,16,46,9.10
2010,01,22,16,47,9.00
2010,01,22,16,48,9.00
2010,01,22,16,49,8.90
2010,01,22,16,50,8.80
2010,01,22,16,51,8.80
2010,01,22,16,52,8.70
2010,01,22,16,53,8.70
2010,01,22,16,54,8.60
2010,01,22,16,55,8.60
2010,01,22,16,56,8.50
2010,01,22,16,57,8.50
2010,01,22,16,58,8.40
2010,01,22,16,59,8.40
2010,01,22,17,00,8.30
2010,01,22,17,01,8.30
2010,01,22,17,02,8.20
2010,01,22,17,03,8.20
2010,01,22,17,04,8.10
2010,01,22,17,05,8.10
2010,01,22,17,06,8.00
2010,01,22,17,07,8.00
2010,01,22,17,08,7.90
2010,01,22,17,09,7.80
2010,01,22,17,10,7.80
2010,01,22,17,11,7.80
2010,01,22,17,12,7.70
2010,01,22,17,13,7.70
2010,01,22,17,14,7.60
2010,01,22,17,15,7.60
2010,01,22,17,16,7.60
2010,01,22,17,17,7.50
2010,01,22,17,18,7.40
2010,01,22,17,19,7.40
2010,01,22,17,20,7.30
2010,01,22,17,21,7.30
2010,01,22,17,22,7.30
2010,01,22,17,23,7.20
2010,01,22,17,24,7.20
2010,01,22,17,25,7.20
2010,01,22,17,26,7.10
2010,01,22,17,27,7.10
2010,01,22,17,28,7.00
2010,01,22,17,29,7.00
2010,01,22,17,30,6.90
2010,01,22,17,31,6.90
2010,01,22,17,32,6.90
2010,01,22,17,33,6.80
2010,01,22,17,34,6.80
2010,01,22,17,35,6.80
2010,01,22,17,36,6.80
2010,01,22,17,37,6.80
2010,01,22,17,38,6.80
2010,01,22,17,39,6.80
2010,01,22,17,40,6.80
2010,01,22,17,41,6.80
2010,01,22,17,42,6.80
2010,01,22,17,43,6.80
2010,01,22,17,44,6.80
2010,01,22,17,45,6.80
2010,01,22,17,46,6.80
2010,01,22,17,47,6.80
2010,01,22,17,48,6.70
2010,01,22,17,49,6.70
2010,01,22,17,50,6.70
2010,01,22,17,51,6.70
2010,01,22,17,52,6.70
2010,01,22,17,53,6.70
2010,01,22,17,54,6.70
2010,01,22,17,55,6.70
2010,01,22,17,56,6.60
2010,01,22,17,57,6.60